Flag for Brazil Weather past 2 weeks in Florianópolis, Santa Catarina, Brazil

61 °F

Partly sunny.

Feels Like: 61 °F
Forecast: 60 / 64 °F
Wind: 6 mph from South

Location: Florianopolis Aeroporto

Current Time: Oct 4, 2015 at 8:11:10 AM

Latest Report: Oct 4, 2015 at 7:00 AM

Visibility: N/A

Pressure: 30.07 "Hg

Humidity: 83%

Dew point: 55 °F

Location of FlorianópolisLocation

Historic Weather in Florianópolis — Graph


Florianópolis temperature yesterday

Maximum temperature yesterday: 72 °F (at 12:00 AM)
Minimum temperature yesterday: 61 °F (at 10:00 PM)
Average temperature yesterday: 66 °F

Past Weeks' High & Low Weather Summary

High82 °F (Sep 23, 12:00 PM)100% (Oct 2, 5:00 AM)30.12 "Hg (Oct 2, 5:00 AM)
Low59 °F (Oct 4, 3:00 AM)47% (Sep 30, 7:00 AM)29.68 "Hg (Sep 24, 4:00 PM)
Average70 °F81%29.93 "Hg
* Reported Sep 19 7:00 AM — Oct 4 7:00 AM, Florianópolis, Weather by CustomWeather, © 2015

Note: Actual official high and low records may vary slightly from our data, if they occured in-between our weather recording intervals... More about our weather records


Florianópolis weather history for previous 24 hours

Time TempWeatherWind HumidityBarometerVisibility
7:00 AM
Sun, Oct 4
61 °FPartly sunny.6 mph83%30.07 "HgN/A
6:00 AM61 °FPartly sunny.6 mph83%30.07 "HgN/A
5:00 AM61 °FLight rain. Broken clouds.No wind83%30.04 "Hg5 mi
4:00 AM59 °FLight rain. Partly cloudy.3 mph88%30.04 "Hg5 mi
3:00 AM59 °FLight rain. Partly cloudy.2 mph88%30.04 "Hg5 mi
2:00 AM61 °FLight rain. Partly cloudy.6 mph88%30.07 "Hg6 mi
1:00 AM61 °FLight rain. Partly cloudy.8 mph88%30.07 "Hg6 mi
12:00 AM61 °FLight rain. Partly cloudy.5 mph83%30.07 "HgN/A
11:00 PM
Sat, Oct 3
61 °FPartly cloudy.7 mph88%30.07 "HgN/A
10:00 PM61 °FPartly cloudy.7 mph83%30.07 "HgN/A
9:00 PM63 °FMostly cloudy.8 mph77%30.07 "HgN/A
8:00 PM63 °FMostly cloudy.8 mph77%30.04 "HgN/A
7:00 PM63 °FMostly cloudy.8 mph83%30.01 "HgN/A
6:00 PM63 °FMostly cloudy.9 mph83%30.01 "HgN/A
5:00 PM63 °FScattered showers. Broken clouds.9 mph83%N/AN/A
4:00 PM63 °FPartly sunny.12 mph83%29.98 "HgN/A
3:00 PM64 °FPartly sunny.12 mph78%29.95 "HgN/A
2:00 PM64 °FPartly sunny.16 mph78%29.98 "HgN/A
1:00 PM64 °FPartly sunny.13 mph83%29.98 "HgN/A
12:00 PM64 °FPartly sunny.10 mph83%30.01 "HgN/A
11:00 AM64 °FBroken clouds.10 mph83%30.01 "HgN/A
10:00 AM66 °FBroken clouds.12 mph78%30.01 "HgN/A
9:00 AM66 °FBroken clouds.12 mph83%29.98 "HgN/A
8:00 AM66 °FBroken clouds.14 mph88%29.95 "HgN/A
Weather by CustomWeather, © 2015

See weather overviewHow to use our weather pages